GEESAT 2-08

Satellite information

Favourite Embed

Satellite Type and Status

PAYLOADIN ORBIT

Key statistics

Satellite GEESAT 2-08 at a glance.

Uptime

461

Days in orbit

Revolutions

≈ 14.9

Per day

Orbit

LEO

Low Earth Orbit

Inclination

50.0

Latest

Satellite identification and parameters

Extended collection of information and parameters for GEESAT 2-08.

Object identification

Identified? True

Debris? False

Object name: GEESAT 2-08

International designator: 2024-023H

Object number (NORAD): 58912

Object ID (CCSDS): 58912

Country: PEOPLES REPUBLIC OF CHINA (PRC)

Current information (Y/N): Y

RCS size: MEDIUM

Orbital parameters

Period: 96.438 minutes

Inclination: 49.9882 deg

SMA: 6966.152 km

Apoapsis: 592.994 km

Periapsis: 583.041 km

RAAN: 81.0992 deg

Eccentricy: 0.0007144

Argument of periapsis: 44.3432 deg

Mean anomaly: 315.8081 deg

Mean motion: 14.93183902 rev/day

Mean motion (dot): 0.00004273 rev/day2

B* drag term: 0.00042759 1/REarth

Two-line elements (TLE)

Creation date: May 7, 2025, 10:26 p.m.

Reference frame: TEME

Reference center: EARTH

Epoch: May 7, 2025, 9:25 p.m. UTC

TLE line 0: 0 GEESAT 2-08

TLE line 1: 1 58912U 24023H 25127.89259496 .00004273 00000-0 42759-3 0 9991

TLE line 2: 2 58912 49.9882 81.0992 0007144 44.3432 315.8081 14.93183902 68619

Live tracking on map

Real-time ground track for satellite GEESAT 2-08.

In-orbit conjunctions

There are no conjunctions computed for GEESAT 2-08, at the moment. Check back to stay up to date, as we update our databases every day.

Go to all conjunctions

Associated space launch

11 LEO communications satellites for Chinese car manufacturer Geely Automotive for testing autonomous driving/inter-vehicle communication services. They also carry payloads for ocean observation.

GEESAT 2-08 was lifted into orbit during the mission ‘Long March 2C | Geely Constellation Group 02’, on board a Long March 2 space rocket.

The launch took place on Feb. 2, 2024, 11:37 p.m. from Launch Complex 3 (LC-3/LA-1).

For more information about the launch, click the button.

Launch to space Long March 2C | Geely Constellation Group 02
Long March 2C | Geely Constellation Group 02

Agency: N/A

Status: Launch Successful

Launch date: Feb. 2, 2024, 11:37 p.m. UTC

Rocket: Long March 2

Launch pad: Launch Complex 3 (LC-3/LA-1)

Location: Xichang Satellite Launch Center, People's Republic of China

...

Latest news about this satellite

News about space launch
China launches 20 satellites on separate inland and sea rocket launches

A pair of Chinese rockets launched 11 mobility services satellites for an automaker and nine further, diverse satellites into orbit late Friday.


Newsletter sign-up

Weekly statistics, charts and insights to help you stay on top of the space industry.